EW4496 Weather Reports


time (UTC)temp
C
wind
direction
speed
KPH
gust
KPH
rain 1hr
cm
rain 24hr
cm
rain mn
cm
humidity
%
barometer
mb
20260904173128 18 195 0.0 9.7 0.03 0.05 0.05 76 1013.6
20260904171611 18 195 0.0 6.4 0.03 0.05 0.05 78 1013.4
20260904170108 18 276 0.0 9.7 0.03 0.05 0.05 78 1013.3
20260904164504 17 200 1.6 8.0 0.00 0.03 0.03 80 1013.2
20260904163018 16 148 0.0 4.8 0.00 0.03 0.03 85 1013.2
20260904161605 16 229 0.0 4.8 0.00 0.03 0.03 87 1013.1
20260904160106 15 266 0.0 6.4 0.00 0.03 0.03 88 1013.1
20260904154603 15 335 0.0 1.6 0.00 0.03 0.03 89 1013.0
20260904153103 15 290 1.6 9.7 0.00 0.03 0.03 89 1012.9
20260904151503 15 247 0.0 8.0 0.00 0.03 0.03 90 1012.9
20260904150011 15 353 0.0 4.8 0.00 0.03 0.03 90 1012.9
20260904144504 15 285 0.0 6.4 0.00 0.03 0.03 91 1012.7
20260904143003 15 297 0.0 6.4 0.00 0.03 0.03 91 1012.4
20260904141503 15 282 0.0 4.8 0.00 0.03 0.03 91 1012.2
20260904140003 15 252 1.6 6.4 0.00 0.03 0.03 91 1012.0
20260904134510 15 240 0.0 3.2 0.00 0.03 0.03 91 1011.8
20260904133048 15 251 0.0 0.0 0.00 0.03 0.03 91 1011.7
20260904131521 15 276 0.0 1.6 0.00 0.03 0.03 91 1011.7
20260904130030 15 247 1.6 0.0 0.00 0.00 0.03 90 1011.5
20260904124528 15 267 0.0 6.4 0.00 0.03 0.03 90 1011.5
20260904123032 16 259 0.0 8.0 0.00 0.03 0.03 90 1011.4
20260904121543 16 295 0.0 11.3 0.00 0.03 0.03 90 1011.2
20260904120050 16 241 0.0 4.8 0.00 0.03 0.03 91 1011.2
20260904114548 16 244 0.0 4.8 0.00 0.03 0.03 91 1011.2
20260904113050 16 298 0.0 4.8 0.00 0.03 0.03 91 1011.1
20260904111547 16 243 0.0 1.6 0.00 0.03 0.03 91 1011.1
20260904110047 16 256 0.0 3.2 0.00 0.03 0.03 91 1011.0
20260904104549 16 248 0.0 4.8 0.00 0.03 0.03 91 1010.9
20260904103047 16 270 0.0 3.2 0.00 0.03 0.03 92 1010.9
20260904101546 16 309 0.0 1.6 0.00 0.03 0.03 92 1010.8
20260904100050 16 310 0.0 0.0 0.00 0.03 0.03 92 1010.7
20260904094554 16 266 0.0 1.6 0.00 0.03 0.03 92 1010.8
20260904093051 16 341 0.0 1.6 0.00 0.03 0.03 92 1010.6
20260904091547 16 300 0.0 4.8 0.00 0.03 0.03 92 1010.6
20260904090047 16 310 0.0 4.8 0.00 0.03 0.03 92 1010.7
20260904084547 16 347 0.0 4.8 0.03 0.03 0.03 92 1010.7
20260904083048 16 354 0.0 6.4 0.03 0.03 0.03 91 1010.8
20260904081547 16 293 0.0 6.4 0.03 0.03 0.03 90 1010.7
20260904080046 17 221 1.6 6.4 0.03 0.03 0.03 88 1010.7
20260904074546 17 324 0.0 4.8 0.00 0.00 0.00 85 1010.9
20260904073049 18 317 0.0 4.8 0.00 0.00 0.00 80 1011.0
20260904071517 18 326 0.0 9.7 0.00 0.00 0.00 79 1010.9
20260904070041 18 342 0.0 8.0 0.00 0.00 0.00 78 1010.9
20260904064541 18 9 0.0 4.8 0.00 0.00 0.00 77 1010.8
20260904063041 18 264 0.0 6.4 0.00 0.00 0.00 77 1010.7
20260904061542 18 274 1.6 8.0 0.00 0.00 0.00 77 1010.8
20260904060056 19 294 0.0 8.0 0.00 0.00 0.00 77 1010.8
20260904054555 19 311 0.0 9.7 0.00 0.00 0.00 77 1010.8
20260904053055 19 328 1.6 11.3 0.00 0.00 0.00 77 1010.8
20260904051605 19 323 0.0 4.8 0.00 0.00 0.00 78 1011.0
20260904050057 19 316 0.0 6.4 0.00 0.00 0.00 77 1010.9
20260904044555 19 262 0.0 3.2 0.00 0.00 0.00 77 1010.8
20260904043111 19 256 0.0 4.8 0.00 0.00 0.00 77 1010.9
20260904041609 19 262 0.0 4.8 0.00 0.00 0.00 77 1010.9
20260904040110 19 321 0.0 0.0 0.00 0.00 0.00 77 1010.9
20260904034513 20 307 0.0 1.6 0.00 0.00 0.00 76 1010.8
20260904033010 20 304 0.0 3.2 0.00 0.00 0.00 76 1010.7
20260904031510 20 345 0.0 1.6 0.00 0.00 0.00 75 1010.5
20260904030010 20 7 0.0 3.2 0.00 0.00 0.00 74 1010.4
20260904024525 20 325 1.6 8.0 0.00 0.00 0.00 74 1010.5
20260904023025 20 354 0.0 11.3 0.00 0.00 0.00 73 1010.6
20260904021527 20 4 1.6 8.0 0.00 0.00 0.00 72 1010.6
20260904020025 20 7 1.6 12.9 0.00 0.00 0.00 71 1010.6
20260904014553 21 356 1.6 11.3 0.00 0.00 0.00 70 1010.7
20260904013046 21 16 1.6 11.3 0.00 0.00 0.00 69 1010.7
20260904011541 21 24 0.0 9.7 0.00 0.00 0.00 68 1010.7
20260904010042 21 175 3.2 19.3 0.00 0.00 0.00 67 1010.8
20260904004554 22 351 4.8 19.3 0.00 0.00 0.00 65 1010.8
20260904003054 23 344 3.2 11.3 0.00 0.00 0.00 63 1010.8
20260904001554 23 349 4.8 22.5 0.00 0.00 0.00 62 1010.8
20260904000109 23 275 1.6 17.7 0.00 0.00 0.00 62 1010.8
20260903234609 23 34 6.4 22.5 0.00 0.00 0.00 62 1010.9
20260903233111 23 59 1.6 19.3 0.00 0.00 0.00 61 1010.9
20260903231609 24 351 3.2 12.9 0.00 0.00 0.00 57 1011.0
20260903230116 24 349 4.8 19.3 0.00 0.00 0.00 57 1011.1
20260903224523 25 327 1.6 9.7 0.00 0.00 0.00 56 1011.2
20260903223011 24 356 1.6 12.9 0.00 0.00 0.00 57 1011.3
20260903221509 24 11 0.0 11.3 0.00 0.00 0.00 56 1011.4
20260903220008 25 332 3.2 14.5 0.00 0.00 0.00 55 1011.8
20260903214513 24 15 0.0 14.5 0.00 0.00 0.00 57 1011.9
20260903213028 24 33 1.6 16.1 0.00 0.00 0.00 57 1012.1
20260903211523 24 20 3.2 20.9 0.00 0.00 0.00 56 1012.2
20260903210024 24 25 3.2 16.1 0.00 0.00 0.00 55 1012.1
20260903204525 24 317 3.2 16.1 0.00 0.00 0.00 56 1012.2
20260903203023 24 329 6.4 16.1 0.00 0.00 0.00 55 1012.4
20260903201524 24 3 1.6 11.3 0.00 0.00 0.00 56 1012.3
20260903200025 24 300 3.2 9.7 0.00 0.00 0.00 56 1012.6
20260903194523 25 340 3.2 14.5 0.00 0.00 0.00 54 1012.7
20260903193038 25 6 1.6 11.3 0.00 0.00 0.00 53 1012.9
20260903191540 24 359 1.6 9.7 0.00 0.00 0.00 55 1013.1
20260903190037 23 343 1.6 11.3 0.00 0.00 0.00 57 1013.2
20260903184538 24 288 1.6 17.7 0.00 0.00 0.00 58 1013.4
20260903183111 23 219 0.0 9.7 0.00 0.00 0.00 59 1013.5
20260903181610 22 331 0.0 9.7 0.00 0.00 0.00 63 1013.7
20260903180107 21 340 0.0 9.7 0.00 0.00 0.00 65 1013.7
20260903174607 21 286 1.6 9.7 0.00 0.00 0.00 66 1013.8